Council Bluffs, IA

7:32 PM CDT on August 27, 2016 (GMT -0500)
Council Bluffs Municipal

Weather History for KCBF - March, 2013

Change the Weather History Date:

Saturday, March 23, 2013

  Actual Average Record
Temperature  
Mean Temperature 30 °F -  
Max Temperature 35 °F 51 °F 77 °F (2003)
Min Temperature 26 °F 32 °F 15 °F (2014)
Degree Days  
Heating Degree Days 34    
Moisture  
Dew Point 26 °F    
Average Humidity 81    
Maximum Humidity 100    
Minimum Humidity 56    
Precipitation  
Precipitation 0.00 in - - ()
Sea Level Pressure  
Sea Level Pressure 30.05 in    
Wind  
Wind Speed 9 mph (NE)    
Max Wind Speed 18 mph    
Max Gust Speed 22 mph    
Visibility 8 miles    
Events Rain , Snow    
Averages and records for this station are not official NWS values.
T = Trace of Precipitation, MM = Missing Value Source: NWS Daily Summary

Daily Weather History Graph

Daily Weather History Graph

Search for Another Location

Airport or City:

Trip Planner

Search our weather history database for the weather conditions in past years. The results will help you decide how hot, cold, wet, or windy it might be!

Date:

Astronomy

Mar. 23, 2013 Rise Set
Actual Time 7:20 AM CDT 7:38 PM CDT
Civil Twilight 6:53 AM CDT 8:06 PM CDT
Nautical Twilight 6:20 AM CDT 8:38 PM CDT
Astronomical Twilight 5:47 AM CDT 9:12 PM CDT
Moon 4:04 PM CDT (3/23) 4:59 AM CDT (3/23)
Length of Visible Light 13h 13m
Length of Day
12h 17m
Waxing Gibbous, 85% of the Moon is Illuminated
Mar 23
Waxing Gibbous
Mar 27
Full
Apr 2
Last Quarter
Apr 10
New
Apr 18
First Quarter

Hourly Weather History & Observations

Time (CDT) Temp. Windchill Dew Point Humidity Pressure Visibility Wind Dir Wind Speed Gust Speed Precip Events Conditions
12:15 AM 32.0 °F 25.6 °F 23.0 °F 69% 30.01 in 10.0 mi NE 6.9 mph - N/A   Overcast
12:35 AM 32.0 °F 24.8 °F 23.0 °F 69% 30.02 in 10.0 mi NE 8.1 mph - N/A   Overcast
12:55 AM 32.0 °F 25.6 °F 24.8 °F 75% 30.03 in 10.0 mi NE 6.9 mph - N/A   Overcast
1:15 AM 32.0 °F 26.4 °F 24.8 °F 75% 30.04 in 10.0 mi East 5.8 mph - N/A   Overcast
1:35 AM 32.0 °F 25.6 °F 24.8 °F 75% 30.03 in 10.0 mi East 6.9 mph - N/A   Overcast
1:55 AM 32.0 °F 26.4 °F 24.8 °F 75% 30.04 in 10.0 mi ENE 5.8 mph - N/A   Overcast
2:15 AM 30.2 °F 22.6 °F 24.8 °F 80% 30.04 in 10.0 mi NE 8.1 mph - N/A   Overcast
2:35 AM 30.2 °F 23.4 °F 24.8 °F 80% 30.05 in 10.0 mi ENE 6.9 mph - N/A   Overcast
2:55 AM 30.2 °F 24.3 °F 24.8 °F 80% 30.06 in 10.0 mi NE 5.8 mph - N/A   Overcast
3:15 AM 30.2 °F 23.4 °F 24.8 °F 80% 30.05 in 10.0 mi NE 6.9 mph - N/A   Overcast
3:35 AM 30.2 °F 22.6 °F 24.8 °F 80% 30.04 in 10.0 mi NE 8.1 mph - N/A   Overcast
3:55 AM 30.2 °F 23.4 °F 24.8 °F 80% 30.03 in 10.0 mi NE 6.9 mph - N/A   Overcast
4:15 AM 30.2 °F 22.6 °F 24.8 °F 80% 30.02 in 10.0 mi ENE 8.1 mph - N/A   Overcast
4:35 AM 30.2 °F 21.9 °F 24.8 °F 80% 30.02 in 10.0 mi ENE 9.2 mph - N/A   Overcast
4:55 AM 30.2 °F 24.3 °F 26.6 °F 86% 30.03 in 10.0 mi NE 5.8 mph - N/A   Overcast
5:15 AM 30.2 °F 24.3 °F 26.6 °F 86% 30.04 in 10.0 mi NNE 5.8 mph - N/A   Overcast
5:35 AM 30.2 °F 23.4 °F 26.6 °F 86% 30.05 in 10.0 mi NNE 6.9 mph - N/A   Overcast
5:55 AM 30.2 °F 24.3 °F 26.6 °F 86% 30.06 in 10.0 mi NNE 5.8 mph - N/A   Overcast
6:15 AM 30.2 °F 24.3 °F 26.6 °F 86% 30.06 in 10.0 mi NE 5.8 mph - N/A   Overcast
6:35 AM 30.2 °F 22.6 °F 26.6 °F 86% 30.06 in 10.0 mi NE 8.1 mph - N/A   Overcast
6:55 AM 30.2 °F 23.4 °F 26.6 °F 86% 30.07 in 10.0 mi NE 6.9 mph - N/A   Overcast
7:15 AM 30.2 °F 24.3 °F 26.6 °F 86% 30.07 in 10.0 mi NE 5.8 mph - N/A   Overcast
7:35 AM 30.2 °F 23.4 °F 26.6 °F 86% 30.07 in 10.0 mi NNE 6.9 mph - N/A   Overcast
7:55 AM 30.2 °F 23.4 °F 26.6 °F 86% 30.07 in 10.0 mi North 6.9 mph - N/A   Overcast
8:15 AM 30.2 °F 23.4 °F 26.6 °F 86% 30.07 in 10.0 mi NNE 6.9 mph - N/A   Mostly Cloudy
8:35 AM 30.2 °F 22.6 °F 26.6 °F 86% 30.07 in 10.0 mi NNE 8.1 mph - N/A   Mostly Cloudy
8:55 AM 30.2 °F 22.6 °F 26.6 °F 86% 30.07 in 10.0 mi NNE 8.1 mph - N/A   Scattered Clouds
9:15 AM 30.2 °F 22.6 °F 24.8 °F 80% 30.07 in 10.0 mi NE 8.1 mph - N/A   Clear
9:35 AM 30.2 °F 21.3 °F 24.8 °F 80% 30.07 in 10.0 mi NNE 10.4 mph - N/A   Clear
9:55 AM 32.0 °F 26.4 °F 24.8 °F 75% 30.10 in 10.0 mi NNE 5.8 mph 12.7 mph N/A   Partly Cloudy
10:15 AM 32.0 °F 24.2 °F 24.8 °F 75% 30.10 in 10.0 mi NE 9.2 mph - N/A   Mostly Cloudy
10:35 AM 32.0 °F 23.6 °F 23.0 °F 69% 30.10 in 10.0 mi NE 10.4 mph - N/A   Overcast
10:55 AM 32.0 °F 23.0 °F 23.0 °F 69% 30.10 in 10.0 mi NE 11.5 mph - N/A   Overcast
11:15 AM 32.0 °F 23.6 °F 23.0 °F 69% 30.11 in 10.0 mi NE 10.4 mph - N/A   Mostly Cloudy
11:35 AM 32.0 °F 23.6 °F 23.0 °F 69% 30.10 in 10.0 mi NE 10.4 mph - N/A   Partly Cloudy
11:55 AM 33.8 °F 25.8 °F 23.0 °F 65% 30.09 in 10.0 mi NE 10.4 mph 18.4 mph N/A   Clear
12:15 PM 33.8 °F 24.8 °F 23.0 °F 65% 30.09 in 10.0 mi NE 12.7 mph - N/A   Scattered Clouds
12:35 PM 33.8 °F 26.4 °F 21.2 °F 60% 30.08 in 10.0 mi NE 9.2 mph 16.1 mph N/A   Overcast
12:55 PM 35.6 °F 26.6 °F 21.2 °F 56% 30.08 in 10.0 mi NE 13.8 mph - N/A   Overcast
1:15 PM 35.6 °F 26.6 °F 21.2 °F 56% 30.06 in 10.0 mi NE 13.8 mph - N/A   Overcast
1:35 PM 35.6 °F 26.2 °F 21.2 °F 56% 30.05 in 10.0 mi NE 15.0 mph - N/A   Overcast
1:55 PM 35.6 °F 27.1 °F 23.0 °F 60% 30.04 in 10.0 mi NE 12.7 mph 19.6 mph N/A   Scattered Clouds
2:15 PM 35.6 °F 25.9 °F 23.0 °F 60% 30.04 in 10.0 mi ENE 16.1 mph - N/A   Partly Cloudy
2:35 PM 35.6 °F 26.6 °F 23.0 °F 60% 30.03 in 9.0 mi NE 13.8 mph 19.6 mph N/A Rain Light Rain
2:55 PM 35.6 °F 26.6 °F 24.8 °F 65% 30.02 in 7.0 mi NE 13.8 mph - N/A Rain Light Rain
3:15 PM 33.8 °F 25.8 °F 24.8 °F 70% 30.02 in 8.0 mi NE 10.4 mph 17.3 mph N/A Rain Light Rain
3:35 PM 33.8 °F 24.8 °F 24.8 °F 70% 30.02 in 5.0 mi NE 12.7 mph 19.6 mph N/A Rain Light Rain
3:55 PM 33.8 °F 27.0 °F 24.8 °F 70% 30.02 in 5.0 mi NE 8.1 mph 16.1 mph N/A Rain Light Rain
4:15 PM 33.8 °F 23.9 °F 24.8 °F 70% 30.02 in 4.0 mi NNE 15.0 mph - N/A Rain Light Rain
4:35 PM 32.0 °F 23.6 °F 28.4 °F 87% 30.03 in 0.8 mi NNE 10.4 mph 17.3 mph N/A Snow Light Snow
4:55 PM 30.2 °F 19.8 °F 30.2 °F 100% 30.03 in 0.5 mi NNE 13.8 mph - N/A Snow Light Snow
5:15 PM 30.2 °F 20.2 °F 30.2 °F 100% 30.04 in 0.8 mi NNE 12.7 mph - N/A Snow Light Snow
5:35 PM 30.2 °F 20.8 °F 30.2 °F 100% 30.04 in 0.8 mi NNE 11.5 mph - N/A Snow Light Snow
5:55 PM 30.2 °F 20.8 °F 30.2 °F 100% 30.04 in 1.5 mi NNE 11.5 mph 18.4 mph N/A   Scattered Clouds
6:15 PM 30.2 °F 19.8 °F 30.2 °F 100% 30.04 in 1.0 mi NNE 13.8 mph - N/A Snow Light Snow
6:35 PM 30.2 °F 18.1 °F 28.4 °F 93% 30.04 in 0.5 mi NNE 18.4 mph - N/A Snow Light Snow
6:55 PM 30.2 °F 19.3 °F 28.4 °F 93% 30.04 in 0.8 mi NNE 15.0 mph - N/A   Mostly Cloudy
7:15 PM 30.2 °F 20.2 °F 28.4 °F 93% 30.05 in 1.0 mi NNE 12.7 mph 20.7 mph N/A Rain Light Freezing Rain
7:35 PM 30.2 °F 19.8 °F 28.4 °F 93% 30.06 in 1.0 mi NNE 13.8 mph - N/A   Overcast
7:55 PM 28.4 °F 17.5 °F 28.4 °F 100% 30.06 in 1.0 mi NNE 13.8 mph - N/A Snow Light Snow
8:15 PM 28.4 °F 17.0 °F 28.4 °F 100% 30.07 in 2.0 mi North 15.0 mph - N/A Snow Light Snow
8:35 PM 28.4 °F 17.0 °F 28.4 °F 100% 30.07 in 2.0 mi North 15.0 mph - N/A Snow Light Snow
8:55 PM 28.4 °F 17.0 °F 28.4 °F 100% 30.07 in 2.0 mi NNE 15.0 mph - N/A Snow Light Snow
9:15 PM 28.4 °F 16.2 °F 26.6 °F 93% 30.07 in 2.5 mi NNE 17.3 mph - N/A   Overcast
9:35 PM 28.4 °F 16.2 °F 26.6 °F 93% 30.06 in 4.0 mi NNE 17.3 mph - N/A   Overcast
9:55 PM 28.4 °F 16.2 °F 26.6 °F 93% 30.05 in 5.0 mi North 17.3 mph - N/A Rain Light Freezing Rain
10:15 PM 28.4 °F 16.6 °F 26.6 °F 93% 30.05 in 7.0 mi North 16.1 mph 21.9 mph N/A   Light Freezing Rain
10:35 PM 28.4 °F 17.5 °F 26.6 °F 93% 30.05 in 10.0 mi North 13.8 mph - N/A   Overcast
10:55 PM 28.4 °F 18.0 °F 26.6 °F 93% 30.05 in 10.0 mi North 12.7 mph - N/A   Overcast
11:15 PM 26.6 °F 16.2 °F 24.8 °F 93% 30.05 in 10.0 mi North 11.5 mph - N/A   Overcast
11:35 PM 28.4 °F 18.0 °F 24.8 °F 86% 30.04 in 10.0 mi North 12.7 mph - N/A   Overcast
11:55 PM 28.4 °F 18.5 °F 24.8 °F 86% 30.05 in 10.0 mi North 11.5 mph - N/A   Overcast